Flag for Norway Weather past 2 weeks in Larvik, Norway

Now
59 °F

Scattered showers. Scattered clouds.


Feels Like: 57 °F
Forecast: 49 / 64 °F
Wind: 9 mph from Southwest

Location: Torp

Current Time: Aug 2, 2015 at 4:29:11 PM

Latest Report: Aug 2, 2015 at 3:50 PM


Visibility: N/A

Pressure: 30.01 "Hg

Humidity: 88%

Dew point: 55 °F

Location of LarvikLocation

Historic Weather in Larvik — Graph

°F

Larvik temperature yesterday

Maximum temperature yesterday: 64 °F (at 3:20 PM)
Minimum temperature yesterday: 46 °F (at 6:20 AM)
Average temperature yesterday: 56 °F

Past Weeks' High & Low Weather Summary

 TemperatureHumidityPressure
High70 °F (Jul 22, 2:20 PM)100% (Jul 20, 11:50 PM)30.01 "Hg (Jul 20, 11:50 PM)
Low46 °F (Aug 1, 6:20 AM)35% (Jul 23, 3:50 PM)29.36 "Hg (Jul 29, 2:20 PM)
Average58 °F79%29.66 "Hg
* Reported Jul 18 3:20 PM — Aug 2 3:20 PM, Larvik, Weather by CustomWeather, © 2015

Note: Actual official high and low records may vary slightly from our data, if they occured in-between our weather recording intervals... More about our weather records

Advertising

Larvik weather history for previous 24 hours

 ConditionsComfort  
Time TempWeatherWind HumidityBarometerVisibility
3:20 PM
Sun, Aug 2
54 °FThunderstorms. Broken clouds.6 mph88%30.01 "HgN/A
2:50 PM63 °FThundershowers. Broken clouds.16 mph64%30.01 "HgN/A
2:20 PM63 °FThundershowers. Scattered clouds.20 mph59%30.01 "HgN/A
1:50 PM64 °FScattered showers. Scattered clouds.15 mph64%30.01 "HgN/A
1:20 PM63 °FScattered clouds.12 mph59%30.01 "HgN/A
12:50 PM63 °FPassing clouds.7 mph56%30.01 "HgN/A
12:20 PM63 °FPassing clouds.13 mph56%30.01 "HgN/A
11:50 AM63 °FPassing clouds.14 mph56%30.01 "HgN/A
11:20 AM61 °FPassing clouds.9 mph63%29.98 "HgN/A
10:50 AM61 °FPassing clouds.9 mph63%29.98 "HgN/A
10:20 AM59 °FPassing clouds.10 mph72%29.98 "HgN/A
9:50 AM59 °FPassing clouds.12 mph72%29.98 "HgN/A
9:20 AM57 °FPassing clouds.12 mph82%29.98 "HgN/A
8:50 AM57 °FPassing clouds.8 mph82%29.95 "HgN/A
8:20 AM55 °FPassing clouds.6 mph88%29.95 "HgN/A
7:50 AM55 °FPassing clouds.7 mph88%29.95 "HgN/A
7:20 AM54 °FPassing clouds.6 mph88%29.95 "HgN/A
6:50 AM52 °FPassing clouds.7 mph100%29.95 "HgN/A
6:20 AM52 °FThundershowers. Passing clouds.7 mph100%29.95 "HgN/A
5:20 AM52 °FThundershowers. Passing clouds.7 mph100%29.95 "HgN/A
4:50 AM52 °FLight rain. Partly cloudy.9 mph94%29.95 "Hg1 mi
4:20 AM55 °FHeavy rain. Mostly cloudy.12 mph77%29.95 "Hg2 mi
3:50 AM55 °FPartly cloudy.10 mph88%29.95 "HgN/A
3:20 AM55 °FPassing clouds.9 mph88%29.95 "HgN/A
2:50 AM55 °FPassing clouds.9 mph88%29.95 "HgN/A
2:20 AM55 °FPassing clouds.9 mph94%29.95 "HgN/A
1:50 AM57 °FPartly cloudy.10 mph82%29.98 "HgN/A
1:20 AM57 °FOvercast.10 mph82%29.98 "HgN/A
12:50 AM57 °FPassing clouds.9 mph82%29.98 "HgN/A
11:50 PM
Sat, Aug 1
57 °FCool.9 mph82%29.98 "HgN/A
11:20 PM57 °FCool.10 mph82%29.98 "HgN/A
10:50 PM57 °FClear.12 mph82%29.98 "Hg10 mi
10:20 PM57 °FSunny.10 mph82%29.98 "Hg10 mi
9:50 PM57 °FSunny.12 mph82%29.98 "Hg10 mi
9:20 PM57 °FSunny.12 mph82%29.98 "Hg10 mi
8:50 PM57 °FSunny.12 mph82%29.98 "Hg10 mi
8:20 PM59 °FSunny.13 mph77%29.98 "Hg10 mi
7:50 PM59 °FPassing clouds.14 mph77%29.98 "HgN/A
7:20 PM59 °FPassing clouds.15 mph77%29.95 "HgN/A
6:50 PM61 °FPassing clouds.15 mph72%29.95 "HgN/A
6:20 PM61 °FPassing clouds.20 mph72%29.95 "HgN/A
5:50 PM63 °FPassing clouds.17 mph68%29.95 "HgN/A
5:20 PM63 °FPassing clouds.18 mph68%29.95 "HgN/A
4:50 PM61 °FPassing clouds.17 mph72%29.95 "HgN/A
4:20 PM63 °FPassing clouds.16 mph68%29.98 "HgN/A
Weather by CustomWeather, © 2015

See weather overviewHow to use our weather pages